Location: Buckeye Ditch
(40.9104°N, 122.9517°W)
Time: 14:46:24
(UTC+00:00)

A-11 Canister half - Pass Details

Date: 26 May 2025
Orbit: 1515 x 1684 km, 47.2° (Epoch: 14 June)

Event Time Altitude Azimuth Distance (km) Brightness Sun altitude
Rises 11:47:11 0° 297° (WNW) 4,699 11.3 -9.9°
Reaches altitude 10° 11:50:15 10° 296° (WNW) 3,700 10.8 -9.4°
Maximum altitude 11:59:30 75° 214° (SSW) 1,564 8.9 -8.0°
Drops below altitude 10° 12:08:42 10° 131° (SE) 3,677 11.2 -6.6°
Sets 12:11:44 0° 129° (SE) 4,668 11.8 -6.2°
